RH
13 12 10 10 8 6 5 4 4 3 3 3 3 3 2 2 2 2 2 2 2 2 2 2 2 2 3 3 3 3 3 3 3 3 3 3 3 3 3 3 3 3 3 3 3 3 3 3 3 3 3 3
12 11 10 8 7 6 5 4 4 3 3 3 3 3 2 2 2 2 2 2 2 2 2 2 2 3 3 3 3 3 3 3 3 3 3 3 4 4 3 3 3 3 3 3 3 3 3 3 3 3 3 3
11 10 9 7 6 5 4 4 4 3 3 3 3 3 3 3 2 2 2 2 2 2 2 2 3 3 3 3 3 3 3 4 4 4 4 4 4 4 4 3 3 3 3 3 3 4 4 4 4 4 3 4
11 10 8 7 6 5 4 4 4 3 3 3 3 3 3 3 2 2 2 2 2 2 2 2 3 3 3 3 3 4 4 4 4 4 4 4 4 4 4 4 4 4 4 4 4 4 4 4 4 4 4 4
10 9 8 6 5 5 4 4 4 3 3 3 3 3 3 3 3 2 2 2 2 2 3 3 3 3 3 3 4 4 4 4 4 4 4 4 4 4 4 4 4 4 4 4 4 4 4 4 4 4 4 4
10 8 7 6 5 5 4 4 4 3 3 4 3 3 3 3 3 2 2 2 2 2 3 3 3 3 3 4 4 4 4 4 4 4 4 4 4 4 4 4 5 4 5 4 4 5 4 5 5 5 5 5
9 8 7 6 5 5 4 4 4 3 3 4 3 3 3 3 3 2 2 2 2 2 3 3 3 3 4 4 4 4 5 5 5 5 5 5 5 5 5 4 5 5 5 5 5 5 5 5 5 5 5 5
10 8 7 6 6 5 5 4 4 4 4 4 4 4 3 3 3 2 2 2 2 2 3 3 3 3 4 4 4 5 5 5 5 5 5 5 5 5 5 5 5 5 5 5 5 5 5 5 6 6 6 6
11 9 7 7 6 5 5 4 4 4 4 4 4 4 4 3 3 3 2 2 3 3 3 3 3 3 4 4 5 5 5 5 5 5 6 5 6 5 6 6 6 6 6 6 6 6 6 6 6 6 6 6
11 9 8 7 6 6 5 5 4 4 4 4 4 4 4 4 3 3 3 3 3 3 3 3 4 4 4 4 4 5 5 6 6 6 6 6 6 6 6 6 6 6 6 6 6 7 7 7 7 7 7 7
11 9 8 7 6 6 6 5 5 4 4 4 4 4 4 4 3 3 3 3 3 3 3 3 4 4 4 4 5 5 6 6 6 6 7 7 7 7 7 7 7 7 7 7 7 7 7 7 7 7 8 8
11 10 8 8 7 7 6 6 5 4 4 4 4 4 4 4 4 4 4 3 4 3 4 4 4 4 4 5 5 5 6 6 6 7 7 7 7 7 8 7 7 7 7 7 7 7 8 7 8 8 9 9
12 10 9 8 8 8 7 6 6 5 5 5 5 5 5 5 4 4 4 4 4 4 4 4 4 5 5 5 5 5 6 6 6 7 7 7 8 8 8 8 8 8 8 8 8 8 8 8 9 9 9 10
13 11 10 9 9 9 8 7 7 6 6 5 5 5 5 5 5 5 5 5 5 5 5 5 5 5 5 5 5 6 6 6 7 7 7 7 8 8 8 9 8 8 8 8 8 8 9 9 10 10 10 10
16 13 11 11 11 10 9 9 8 8 7 7 6 6 6 6 6 6 6 6 6 6 6 6 6 6 6 6 6 6 6 6 7 7 8 8 8 8 8 9 9 9 9 9 10 9 10 10 11 11 12 12
20 16 14 13 12 12 12 11 10 9 9 8 8 8 8 8 8 8 8 8 8 8 8 8 8 8 8 8 8 8 8 7 7 7 8 8 8 9 9 9 9 9 9 10 10 10 11 11 12 13 14 15
25 21 18 16 15 15 15 14 13 12 11 10 10 10 10 10 10 10 10 10 10 10 10 10 10 11 10 10 10 10 10 9 9 9 9 9 9 9 9 9 10 10 10 10 10 11 11 12 13 14 16 17
29 26 23 21 20 19 18 16 16 15 14 13 12 12 12 12 12 12 12 12 13 13 13 14 13 13 13 13 13 12 12 12 12 11 11 10 10 10 10 10 10 11 11 11 11 12 12 12 14 16 18 20
31 31 29 27 25 23 22 21 21 20 18 16 15 15 14 13 14 14 14 14 15 16 16 16 16 16 16 16 16 16 16 15 15 14 13 12 12 12 12 11 11 11 12 12 12 13 13 13 15 17 20 22
33 33 33 33 32 31 30 29 28 27 25 23 22 20 18 16 15 15 16 16 16 17 17 18 18 19 19 19 19 19 19 19 18 18 17 16 15 15 15 14 13 13 13 13 13 14 14 15 15 18 21 23
34 35 36 37 38 38 38 38 37 36 34 33 31 30 28 22 19 18 18 18 18 18 19 19 20 20 21 21 21 22 22 22 22 22 21 21 20 19 18 17 16 15 14 14 14 15 16 16 17 19 22 25
36 37 38 38 40 41 42 44 44 44 43 42 42 42 40 35 30 27 24 22 21 21 21 21 21 21 22 23 23 24 24 25 25 25 24 25 24 24 23 22 20 19 18 16 15 16 17 18 18 19 23 26
38 38 39 39 40 41 43 45 46 47 47 48 49 49 48 46 45 42 36 32 29 27 25 25 24 24 24 24 25 26 27 28 28 28 28 28 28 27 27 26 25 24 22 21 18 18 19 20 21 22 24 27
38 38 39 40 40 41 43 45 46 46 48 50 52 53 52 52 53 52 48 44 41 37 34 32 30 28 26 26 26 27 28 31 32 33 32 31 31 30 30 30 29 29 27 26 24 23 23 23 23 24 27 30
36 37 38 39 39 40 42 43 44 45 47 49 52 54 54 55 56 55 55 54 52 48 44 41 37 33 30 28 28 29 32 36 39 39 39 38 38 36 35 34 34 34 32 31 29 28 28 28 29 29 29 31
35 36 36 36 36 38 39 41 42 44 45 47 49 52 54 55 56 56 57 58 57 56 53 49 45 39 34 31 32 35 39 44 46 47 47 46 46 45 44 42 42 42 40 38 35 35 33 30 32 33 34 33
35 36 35 35 36 36 36 36 37 39 40 42 45 50 53 55 56 57 58 59 59 59 58 54 50 44 39 37 38 42 46 49 51 52 53 52 52 52 52 51 51 53 52 50 48 48 45 40 38 36 36 39
31 32 32 34 36 37 36 36 36 36 36 39 43 49 53 55 56 57 58 59 60 60 61 58 55 50 46 44 45 47 49 51 53 55 56 56 56 57 56 57 59 61 62 62 61 62 60 58 55 48 45 47
24 25 28 32 35 38 39 40 40 38 37 40 43 47 54 56 57 57 58 60 60 61 62 61 58 55 53 51 50 50 51 52 54 56 57 59 59 59 59 61 63 64 65 67 68 69 69 69 69 63 61 60
24 25 28 31 34 38 41 43 43 42 42 44 44 46 52 56 57 58 59 60 61 61 62 62 60 58 57 56 55 54 54 54 55 56 58 59 60 61 62 62 63 65 66 68 69 71 74 75 76 73 73 74
28 29 30 31 33 35 38 39 41 44 46 46 45 47 50 55 58 59 60 60 61 61 61 61 60 60 59 59 58 57 57 57 57 57 58 59 60 61 62 63 64 65 66 68 70 73 75 77 79 80 79 81
Wind_Speed
21 22 22 23 24 24 25 25 25 26 26 26 25 25 24 23 22 21 20 19 17 16 16 15 16 17 18 18 19 20 20 21 21 21 21 20 20 20 19 19 19 19 18 18 17 17 17 17 17 17 17 18
21 21 22 23 23 24 24 25 25 25 25 25 24 24 23 23 22 21 20 18 16 16 16 17 18 18 19 20 21 21 21 22 22 22 22 22 21 21 21 20 20 20 19 19 19 19 19 19 19 19 19 19
20 21 22 23 23 24 24 24 25 25 24 24 23 23 23 22 22 21 20 17 16 17 18 18 19 20 21 22 22 23 23 23 24 24 24 23 23 23 22 22 22 21 21 20 20 20 20 20 21 21 21 21
20 21 22 23 23 24 24 24 24 24 24 23 23 23 22 22 22 21 20 18 18 18 19 20 21 22 22 23 24 24 24 25 25 25 25 25 24 24 24 24 23 23 23 22 22 22 22 22 22 23 23 23
21 22 22 23 23 23 24 24 24 23 23 23 22 22 22 22 22 21 20 19 19 20 21 22 23 23 24 24 25 25 26 26 26 27 27 26 26 26 25 25 25 24 24 24 24 24 24 24 24 24 24 24
22 22 22 22 22 23 23 23 24 23 23 23 23 23 22 22 22 22 21 21 21 22 23 24 24 25 25 26 26 27 27 27 28 28 28 28 28 27 27 27 27 26 26 26 26 26 26 26 26 26 26 26
22 22 22 22 22 22 23 23 24 24 24 23 23 23 23 23 22 22 22 22 23 24 25 25 26 26 27 27 28 28 29 29 30 30 30 30 30 29 29 28 28 28 28 28 28 28 28 28 28 28 28 28
22 22 22 22 22 22 23 23 24 24 24 24 24 23 23 23 23 23 24 24 25 26 26 27 27 28 28 29 29 30 30 31 31 31 31 31 31 31 31 30 30 30 29 29 29 29 29 29 29 29 30 30
23 23 22 22 22 22 23 23 23 24 24 24 23 23 23 24 24 24 25 26 26 27 28 29 29 29 30 30 31 31 32 32 32 32 32 33 33 33 32 32 31 31 31 30 30 30 30 30 31 31 31 31
22 22 22 22 22 22 23 23 23 23 24 24 24 24 24 24 25 25 26 27 28 29 30 30 31 31 31 32 32 33 33 33 33 33 33 34 34 34 34 34 33 33 33 32 31 32 32 32 33 33 33 34
22 22 22 22 22 22 23 23 23 23 23 24 24 24 25 25 26 26 27 28 29 30 31 32 32 32 33 33 34 34 35 35 35 35 35 35 35 35 35 35 35 35 34 34 33 33 33 34 34 35 35 35
22 22 22 22 22 22 22 23 23 23 23 24 24 24 25 25 26 27 28 29 30 31 32 33 33 33 34 34 35 36 36 36 37 37 37 37 37 37 37 37 36 36 36 36 35 35 35 35 36 36 36 36
22 22 22 22 22 22 22 23 23 23 24 24 24 24 25 25 26 27 28 29 30 31 32 33 33 34 34 35 36 37 37 38 38 38 38 38 38 38 38 38 37 37 36 37 38 37 37 37 37 36 37 37
22 22 22 22 22 22 23 23 24 24 24 25 25 25 25 26 27 28 29 30 31 32 33 33 34 34 35 36 37 37 38 39 39 39 39 40 39 39 39 39 39 38 37 38 39 39 39 38 38 37 38 38
23 23 22 22 22 22 23 23 24 24 24 25 26 26 27 27 28 29 29 30 31 32 33 34 34 35 36 37 37 38 39 40 40 40 40 41 40 40 40 40 40 40 39 38 39 40 40 40 39 39 39 39
23 23 23 23 23 23 23 23 24 24 24 25 26 26 27 28 29 30 30 31 32 33 33 34 35 36 36 37 38 39 40 40 41 41 41 42 42 41 41 41 41 42 41 40 40 41 41 41 40 40 40 39
23 23 23 23 23 23 24 24 24 24 25 25 26 27 27 28 29 30 31 31 32 33 33 34 35 36 37 37 38 39 40 41 41 41 42 42 42 42 43 42 42 43 43 42 41 41 42 42 41 41 41 40
23 24 24 24 24 24 24 24 24 24 25 26 26 27 28 29 30 30 31 32 32 33 33 34 35 36 37 38 38 39 40 41 41 42 42 42 43 43 44 44 44 44 44 43 42 42 43 42 42 42 41 41
24 24 24 24 24 25 25 25 25 25 27 27 27 28 29 30 31 31 32 32 33 33 33 34 35 36 37 38 39 39 41 42 42 43 43 43 44 44 44 45 45 46 46 44 43 43 43 44 43 43 43 42
25 25 25 25 25 26 26 26 26 26 28 28 28 29 30 31 32 32 32 33 34 34 34 35 35 36 38 39 40 40 42 43 43 44 44 44 45 45 45 45 46 47 47 46 45 44 44 44 45 44 44 43
26 26 26 26 26 26 27 27 27 28 29 29 29 30 30 32 33 33 33 34 35 35 35 36 37 37 39 40 41 41 42 44 45 46 45 45 46 47 47 46 46 47 48 48 46 45 45 45 45 45 45 44
27 27 28 27 27 28 28 28 29 30 30 30 30 31 31 32 33 34 34 35 36 37 36 37 38 38 39 41 42 42 43 44 46 47 47 47 47 48 48 47 47 48 48 48 47 46 45 45 45 45 46 45
27 28 29 29 29 29 29 30 31 31 31 31 31 32 32 33 34 35 35 36 37 38 38 38 39 39 40 42 43 43 44 44 46 47 48 48 48 48 49 49 49 49 49 49 48 47 46 46 45 45 46 45
28 29 30 30 31 31 31 32 33 33 32 32 32 33 34 34 35 36 37 37 39 39 39 39 39 40 41 42 44 44 45 45 46 47 48 49 49 49 49 49 49 50 51 51 50 48 47 46 45 45 45 45
29 30 31 32 33 33 33 34 35 34 34 34 33 34 35 35 36 38 38 39 40 40 41 40 41 41 42 43 45 46 45 45 45 46 47 48 49 49 50 50 49 50 51 52 52 50 50 48 46 46 46 46
30 31 32 33 34 34 34 35 36 36 35 36 35 35 35 36 37 39 39 40 41 42 42 42 42 42 42 43 45 46 45 44 44 44 46 47 48 49 50 50 49 49 51 52 53 53 54 53 50 49 47 46
30 31 32 34 34 35 35 35 36 36 36 36 36 36 36 37 38 40 40 41 42 42 43 43 43 43 43 44 45 46 46 44 44 44 45 47 48 49 50 50 49 49 50 51 52 54 56 57 57 56 53 50
32 32 33 34 35 36 36 35 35 36 35 35 36 36 36 37 39 40 41 41 42 43 43 44 44 44 44 44 45 46 46 45 45 45 46 48 49 50 50 50 50 49 48 50 51 52 55 56 59 60 59 57
35 35 35 35 36 36 36 36 36 36 35 34 35 36 36 37 39 40 41 42 43 44 44 45 45 46 46 46 46 47 48 47 47 47 48 49 50 51 52 52 51 50 49 49 50 52 53 55 58 60 60 62
39 39 38 38 38 37 37 37 36 36 36 35 35 36 36 37 39 41 41 42 43 45 46 46 47 47 48 48 48 49 50 50 49 50 50 51 53 53 53 54 54 53 51 52 52 53 53 55 58 60 61 63
41 41 41 41 41 40 40 40 39 36 36 37 37 37 36 37 38 40 42 43 44 46 47 48 48 49 50 51 51 52 52 52 52 53 53 54 55 55 55 56 57 56 55 55 55 55 55 57 58 60 61 63
Wind_Direction
309 311 312 314 314 314 314 314 314 314 314 313 312 310 310 310 309 309 308 305 304 301 299 300 301 302 303 304 305 305 306 306 306 306 307 306 306 305 305 305 305 305 306 306 306 307 308 309 310 312 314 316
309 310 311 312 312 313 313 313 314 313 313 312 310 309 308 308 308 308 306 303 300 298 297 299 300 302 303 304 304 305 305 305 305 305 305 304 303 304 304 304 303 303 303 304 304 304 305 306 308 310 312 314
307 309 311 311 312 312 313 314 313 313 312 310 309 307 307 306 306 305 302 298 297 296 297 299 300 302 303 304 304 304 304 304 304 303 303 302 302 302 302 301 301 301 301 302 302 302 304 305 307 309 311 312
307 310 311 312 312 313 313 313 312 312 310 309 307 306 305 305 304 303 299 296 296 297 298 299 300 301 302 303 303 304 304 304 303 302 301 301 300 300 299 298 298 298 298 299 300 301 303 304 306 308 308 309
309 311 311 311 312 312 312 313 313 311 309 308 306 305 305 304 303 301 298 296 296 297 297 299 299 300 301 302 303 303 303 302 302 300 299 298 297 296 295 294 295 295 296 297 299 301 302 304 305 306 307 307
309 309 309 310 311 312 313 313 312 311 309 308 307 306 306 305 303 300 297 295 295 296 297 297 298 298 299 300 301 302 302 302 301 299 298 297 295 294 294 294 295 296 297 299 300 302 304 305 306 306 307 307
306 307 309 310 311 312 312 312 311 310 309 309 308 308 307 306 303 298 295 293 294 294 295 295 296 297 298 300 301 302 302 301 300 299 298 296 295 294 293 293 294 295 296 298 299 301 302 304 304 304 305 305
305 307 308 309 310 310 310 310 310 310 310 309 309 309 307 305 300 296 293 293 293 294 294 295 296 297 298 299 300 300 299 298 298 297 297 296 294 293 293 293 293 293 294 296 297 298 300 301 302 302 302 302
303 305 306 306 308 309 310 311 311 311 310 309 308 308 306 303 299 296 294 293 294 295 296 296 297 297 297 297 297 297 296 296 296 296 296 296 295 294 294 293 293 294 294 295 296 298 299 300 300 301 301 301
300 302 303 305 307 310 312 313 313 312 310 309 308 307 305 303 300 297 295 295 296 297 298 298 298 298 298 297 296 296 296 296 297 297 297 296 296 295 295 295 295 295 295 296 297 298 299 300 301 301 301 301
299 302 304 306 309 312 314 314 313 312 310 309 308 307 305 303 301 299 297 297 297 298 299 298 298 298 298 298 297 298 298 298 298 298 297 296 296 295 295 295 295 296 296 296 297 298 299 300 300 300 301 301
301 303 305 307 309 312 313 314 312 312 311 309 309 308 306 304 302 300 299 299 299 299 299 299 298 299 299 300 300 300 300 300 299 299 297 296 295 295 295 294 295 295 296 297 297 298 298 299 299 299 299 299
302 303 305 306 308 311 312 312 312 313 312 310 310 308 307 305 304 302 301 301 300 300 300 300 300 301 301 302 302 301 301 300 299 298 297 296 295 294 294 294 294 294 295 296 297 297 297 297 297 297 297 297
302 303 303 305 307 309 310 310 311 312 311 310 310 309 308 307 305 305 304 304 303 303 302 303 303 304 304 303 303 302 302 301 299 299 298 296 295 295 294 294 293 293 294 295 296 296 297 296 296 296 295 296
301 301 301 302 304 306 307 307 309 309 309 309 309 308 308 307 307 306 306 306 305 305 305 306 306 306 305 305 304 304 302 301 300 299 298 297 296 295 294 294 293 293 293 294 294 295 295 295 295 295 295 295
298 298 298 300 301 302 303 303 304 306 306 306 306 306 306 307 307 307 307 307 307 307 307 307 308 307 306 306 305 304 303 302 301 299 298 297 296 295 294 294 293 293 293 293 293 293 293 293 293 293 294 295
295 295 295 296 298 298 299 300 301 303 303 303 303 303 305 306 306 306 307 307 308 308 308 308 308 308 307 306 305 305 303 302 301 299 298 297 296 296 295 294 294 293 293 293 293 292 292 291 291 291 292 293
292 292 292 293 294 295 296 297 299 301 300 300 301 302 304 305 305 306 307 307 308 308 309 309 309 308 307 306 306 305 303 302 301 299 298 298 297 297 296 296 295 294 294 293 293 292 291 291 290 290 291 292
290 290 290 291 292 293 294 296 298 299 299 299 300 302 303 303 304 305 306 306 307 307 308 309 309 308 307 306 306 305 303 302 301 300 300 299 299 298 298 297 297 296 295 294 293 293 292 290 289 289 290 291
287 287 288 289 290 291 293 295 297 297 296 298 300 302 302 303 303 303 304 304 305 306 306 307 307 307 306 306 306 305 304 304 303 302 302 301 300 300 299 298 297 297 296 295 295 294 292 291 289 289 289 290
284 285 286 287 288 289 292 293 295 295 294 298 301 301 302 302 302 302 302 302 302 303 304 304 305 305 305 304 304 305 305 305 304 303 303 303 302 301 300 299 299 298 297 297 296 295 294 292 290 289 288 289
283 284 285 285 287 287 290 292 292 292 294 298 300 300 301 301 301 302 301 301 300 301 302 302 303 303 303 302 302 303 304 305 304 304 303 303 302 301 301 300 300 299 298 297 296 295 294 292 290 289 288 288
284 284 285 286 287 287 288 289 289 290 293 296 297 298 299 299 300 301 300 300 299 300 301 301 301 301 300 300 301 302 303 304 304 303 303 302 302 301 300 300 300 299 298 297 296 295 294 292 290 289 287 286
287 287 288 288 288 288 287 287 287 288 291 292 294 295 296 297 299 299 299 299 299 299 299 300 300 299 299 299 299 301 303 303 303 302 302 301 301 300 300 300 299 299 298 297 296 295 294 293 291 289 287 286
290 290 290 289 288 288 287 286 287 287 288 289 290 292 293 295 297 297 297 298 298 298 298 299 298 298 297 297 297 299 300 301 301 301 301 301 300 300 299 299 299 298 297 297 296 296 294 292 291 290 288 286
290 290 289 288 288 288 288 287 287 288 288 288 288 289 291 293 294 295 295 296 296 297 297 297 297 297 296 295 296 297 298 299 299 300 300 300 300 300 299 298 299 298 298 297 297 297 294 292 291 289 287 286
288 288 288 288 289 289 289 289 289 289 289 290 290 289 288 290 291 292 293 294 295 296 296 296 296 295 294 294 294 295 296 298 299 299 299 299 300 299 298 299 299 299 298 298 299 298 296 296 294 291 290 288
287 286 286 287 288 289 290 290 290 290 291 292 291 289 287 287 287 289 291 293 294 294 295 295 294 294 293 292 293 294 295 296 297 297 298 299 298 298 298 299 299 298 298 299 299 298 298 298 297 295 294 293
288 287 287 287 287 288 289 290 290 291 292 293 291 289 286 284 284 286 289 291 292 292 293 293 292 292 292 292 292 292 293 294 294 295 296 296 295 296 297 298 297 297 298 298 297 297 297 298 297 296 297 296
292 290 289 287 286 287 287 288 288 290 291 291 289 288 285 283 282 284 286 287 289 289 289 289 290 290 291 291 291 292 292 293 293 294 294 293 294 295 295 295 295 296 296 295 294 294 294 294 294 295 296 296
294 293 291 288 286 285 285 286 287 288 289 288 287 286 285 283 281 281 282 283 284 284 285 286 287 288 289 290 291 291 291 292 293 293 293 293 293 293 293 293 294 295 294 293 293 292 291 291 291 292 293 294